Location: Feudal
(51.8839°N, 107.6105°W)
Time: 04:51:39
(UTC+00:00)

Envisat - Pass Details

Date: 23 January 2022
Orbit: 764 x 765 km, 98.2° (Epoch: 25 May)

Event Time Altitude Azimuth Distance (km) Brightness Sun altitude
Rises 00:46:19 0° 221° (SW) 3,222 7.4 -9.9°
Reaches altitude 10° 00:50:02 10° 249° (WSW) 2,303 7.1 -10.4°
Maximum altitude 00:52:16 13° 276° (W) 2,114 6.4 -10.8°
Drops below altitude 10° 00:54:31 10° 302° (WNW) 2,310 6.1 -11.1°
Sets 00:58:16 0° 331° (NNW) 3,243 6.4 -11.6°
